Find Starlink 34837

NORAD ID: 65423 Int'l Des: 2025-192 Owner: SPXS Country: US Constellation: starlink operational
LEOCIRCULAR

リアルタイム位置

3D地球を読み込み中...

Starlink 34837について

説明を読み込み中...

次回通過

Passes for default location (London). Set your location on the main map for personalized predictions.

高度履歴

Loading altitude history...

軌道要素

1 65423U 25192V 26104.60116146 .00007919 00000-0 27922-3 0 9998
2 65423 53.1588 65.4600 0001015 90.6991 269.4126 15.30199505 34885
Epoch: Apr 14, 2026 • Age: 7 hours

現在のステータス

高度 494.3 km
速度 7.62 km/s
衛星直下点 -53.03°S, 170.66°E
打ち上げ日 Aug 31, 2025
運用期間 0.6 years
タイプ internet

技術仕様

分類 Payload
質量 575.00 kg
乾燥質量 530.00 kg
総質量 575.00 kg
長さ 0.30 m
直径 4.10 m
スパン 29.00 m
形状 Box + pan
製造者 SPXS
バスタイプ Starlink V2MO
フェーズステータス In Orbit
所有者/国 SPXS/US

Most Searched